Accueil
METAR-TAF:

METAR-TAF

Aéroports :

Aérodrome de Granges

Granges, Suisse

latitude: 47-10-53N, longitude: 007-24-59E, altitude: 430 m

Observation

Le bulletin a été fait il y a 34 minutes, à 01:50 UTC
Vent 1 kt de sud/sud-est
Température 1°C
Humidité 86%
Pression 1009 hPa
Visibilité: 4800 m
Ciel couvert à une hauteur de 1300 ft

METAR: LSZG 210150Z AUTO 16001KT 4800 OVC013 01/M01 Q1009

Heure: 03:24 (02:24 UTC)

Prévision

Le bulletin a été fait il y a 11 heures et 59 minutes, à 14:25 UTC
Prévision valable du 20 à 15 UTC au 20 à 24 UTC
Vent 5 kt de est
Visibilité: 8000 m
Nuages fragmentés à une hauteur de 1600 ft
Probabilité 30%
du 20 à 21 UTC au 20 à 24 UTC
Visibilité: 4500 m
Nuages fragmentés à une hauteur de 1200 ft

TAF: LSZG 201425Z 2015/2024 08005KT 8000 BKN016 PROB30 2021/2024 4500 BKN012

Observations et prévisions météorologiques de plus de 4000 aéroports (messages METAR et TAF).

Les stations disponibles sont représentées par des disques jaunes et rouges sur la carte.

Passer la souris dessus pour voir le nom de la station.

Cliquer dessus pour voir les observations et prévisions météorologiques.

Pour changer de carte: cliquez sur les boutons verts avec une croix noire pour zoomer, sur le bouton vert avec un tiret pour effectuer un zoom arrière, ou sur les flèches vertes pour les cartes adjacentes.


METAR-TAF: